| time (UTC) | temp C | wind direction | speed KPH | gust KPH | rain 1hr cm | rain 24hr cm | rain mn cm | humidity % | barometer mb |
| 20260510060955 | 11 | 180 | 0.0 | 0.0 | 0.00 | 0.00 | 0.00 | 98 | 1006.4 |
| 20260510060452 | 11 | 114 | 3.2 | 3.2 | 0.00 | 0.00 | 0.00 | 98 | 1006.4 |
| 20260510055948 | 11 | 165 | 1.6 | 3.2 | 0.00 | 0.00 | 0.00 | 98 | 1006.4 |
| 20260510055444 | 11 | 163 | 0.0 | 3.2 | 0.00 | 0.00 | 0.00 | 98 | 1006.3 |
| 20260510054943 | 11 | 151 | 0.0 | 3.2 | 0.00 | 0.00 | 0.00 | 98 | 1006.5 |
| 20260510054437 | 11 | 139 | 3.2 | 3.2 | 0.00 | 0.00 | 0.00 | 97 | 1006.5 |
| 20260510053932 | 11 | 112 | 0.0 | 3.2 | 0.00 | 0.00 | 0.00 | 97 | 1006.5 |
| 20260510053428 | 11 | 90 | 0.0 | 0.0 | 0.00 | 0.00 | 0.00 | 97 | 1006.3 |
| 20260510052924 | 11 | 114 | 0.0 | 0.0 | 0.00 | 0.00 | 0.00 | 97 | 1006.5 |
| 20260510052420 | 11 | 35 | 0.0 | 0.0 | 0.00 | 0.00 | 0.00 | 97 | 1006.7 |
| 20260510051917 | 11 | 187 | 0.0 | 3.2 | 0.00 | 0.00 | 0.00 | 97 | 1006.4 |
| 20260510051414 | 11 | 74 | 0.0 | 0.0 | 0.00 | 0.00 | 0.00 | 97 | 1006.6 |
| 20260510050910 | 11 | 168 | 0.0 | 1.6 | 0.00 | 0.00 | 0.00 | 96 | 1006.5 |
| 20260510050407 | 12 | 90 | 0.0 | 1.6 | 0.00 | 0.00 | 0.00 | 96 | 1006.7 |
| 20260510045904 | 12 | 98 | 0.0 | 1.6 | 0.00 | 0.00 | 0.00 | 96 | 1006.6 |
| 20260510045401 | 12 | 54 | 0.0 | 1.6 | 0.00 | 0.00 | 0.00 | 96 | 1006.6 |
| 20260510044858 | 12 | 165 | 0.0 | 0.0 | 0.00 | 0.00 | 0.00 | 96 | 1006.9 |
| 20260510044354 | 12 | 106 | 0.0 | 1.6 | 0.00 | 0.00 | 0.00 | 95 | 1006.7 |
| 20260510043851 | 12 | 157 | 0.0 | 3.2 | 0.00 | 0.00 | 0.00 | 95 | 1006.7 |
| 20260510043347 | 12 | 174 | 0.0 | 3.2 | 0.00 | 0.00 | 0.00 | 95 | 1006.4 |
| 20260510042845 | 12 | 106 | 0.0 | 1.6 | 0.00 | 0.00 | 0.00 | 95 | 1006.3 |
| 20260510042341 | 12 | 160 | 0.0 | 3.2 | 0.00 | 0.00 | 0.00 | 95 | 1006.4 |
| 20260510041837 | 12 | 60 | 0.0 | 1.6 | 0.00 | 0.00 | 0.00 | 94 | 1006.3 |
| 20260510041334 | 12 | 166 | 0.0 | 0.0 | 0.00 | 0.00 | 0.00 | 94 | 1006.4 |
| 20260510040832 | 12 | 162 | 1.6 | 1.6 | 0.00 | 0.00 | 0.00 | 93 | 1006.3 |
| 20260510040328 | 12 | 157 | 0.0 | 1.6 | 0.00 | 0.00 | 0.00 | 93 | 1006.1 |
| 20260510035824 | 12 | 168 | 0.0 | 3.2 | 0.00 | 0.00 | 0.00 | 93 | 1006.3 |
| 20260510035320 | 13 | 180 | 0.0 | 0.0 | 0.00 | 0.00 | 0.00 | 93 | 1006.2 |
| 20260510034816 | 13 | 180 | 0.0 | 0.0 | 0.00 | 0.00 | 0.00 | 92 | 1006.2 |
| 20260510034314 | 13 | 180 | 0.0 | 0.0 | 0.00 | 0.00 | 0.00 | 92 | 1006.2 |
| 20260510033810 | 13 | 180 | 0.0 | 0.0 | 0.00 | 0.00 | 0.00 | 91 | 1006.4 |
| 20260510033307 | 13 | 174 | 1.6 | 3.2 | 0.00 | 0.00 | 0.00 | 92 | 1006.1 |
| 20260510032803 | 13 | 157 | 0.0 | 1.6 | 0.00 | 0.00 | 0.00 | 91 | 1006.3 |
| 20260510032300 | 13 | 90 | 0.0 | 0.0 | 0.00 | 0.00 | 0.00 | 91 | 1006.4 |
| 20260510031756 | 13 | 90 | 0.0 | 0.0 | 0.00 | 0.00 | 0.00 | 89 | 1006.2 |
| 20260510031251 | 13 | 114 | 0.0 | 0.0 | 0.00 | 0.00 | 0.00 | 89 | 1006.3 |
| 20260510030745 | 14 | 114 | 0.0 | 0.0 | 0.00 | 0.00 | 0.00 | 88 | 1006.3 |
| 20260510030242 | 14 | 114 | 0.0 | 0.0 | 0.00 | 0.00 | 0.00 | 88 | 1006.1 |
| 20260510025739 | 14 | 114 | 0.0 | 1.6 | 0.00 | 0.00 | 0.00 | 87 | 1006.1 |
| 20260510025238 | 14 | 90 | 0.0 | 0.0 | 0.00 | 0.00 | 0.00 | 86 | 1006.3 |
| 20260510024734 | 15 | 180 | 0.0 | 1.6 | 0.00 | 0.00 | 0.00 | 86 | 1006.0 |
| 20260510024231 | 15 | 172 | 0.0 | 0.0 | 0.00 | 0.00 | 0.00 | 87 | 1005.8 |
| 20260510023726 | 15 | 99 | 0.0 | 0.0 | 0.00 | 0.00 | 0.00 | 87 | 1005.8 |
| 20260510023224 | 15 | 203 | 0.0 | 0.0 | 0.00 | 0.00 | 0.00 | 87 | 1005.9 |
| 20260510022720 | 15 | 203 | 0.0 | 0.0 | 0.00 | 0.00 | 0.00 | 86 | 1005.9 |
| 20260510022219 | 15 | 168 | 0.0 | 0.0 | 0.00 | 0.00 | 0.00 | 84 | 1006.0 |
| 20260510021715 | 15 | 165 | 0.0 | 1.6 | 0.00 | 0.00 | 0.00 | 85 | 1005.8 |
| 20260510021213 | 15 | 165 | 0.0 | 0.0 | 0.00 | 0.00 | 0.00 | 84 | 1005.8 |
| 20260510020707 | 15 | 165 | 0.0 | 0.0 | 0.00 | 0.00 | 0.00 | 83 | 1005.8 |
| 20260510020203 | 16 | 81 | 0.0 | 0.0 | 0.00 | 0.00 | 0.00 | 84 | 1005.7 |
| 20260510015658 | 16 | 81 | 0.0 | 0.0 | 0.00 | 0.00 | 0.00 | 84 | 1005.3 |
| 20260510015155 | 16 | 81 | 0.0 | 0.0 | 0.00 | 0.00 | 0.00 | 83 | 1005.6 |
| 20260510014650 | 16 | 81 | 0.0 | 0.0 | 0.00 | 0.00 | 0.00 | 83 | 1005.5 |
| 20260510014148 | 16 | 81 | 0.0 | 0.0 | 0.00 | 0.00 | 0.00 | 82 | 1005.4 |
| 20260510013643 | 16 | 81 | 0.0 | 0.0 | 0.00 | 0.00 | 0.00 | 83 | 1005.4 |
| 20260510013139 | 16 | 81 | 0.0 | 0.0 | 0.00 | 0.00 | 0.00 | 83 | 1004.9 |
| 20260510012638 | 16 | 81 | 0.0 | 0.0 | 0.00 | 0.00 | 0.00 | 82 | 1005.4 |
| 20260510012134 | 16 | 81 | 0.0 | 0.0 | 0.00 | 0.00 | 0.00 | 83 | 1005.0 |
| 20260510011629 | 17 | 81 | 0.0 | 0.0 | 0.00 | 0.00 | 0.00 | 82 | 1004.9 |
| 20260510011125 | 17 | 81 | 0.0 | 0.0 | 0.00 | 0.00 | 0.00 | 80 | 1004.6 |
| 20260510010621 | 17 | 81 | 0.0 | 0.0 | 0.00 | 0.00 | 0.00 | 79 | 1004.8 |
| 20260510010119 | 17 | 81 | 0.0 | 0.0 | 0.00 | 0.00 | 0.00 | 79 | 1004.8 |
| 20260510005614 | 17 | 172 | 0.0 | 0.0 | 0.00 | 0.00 | 0.00 | 78 | 1004.6 |
| 20260510005111 | 17 | 172 | 0.0 | 0.0 | 0.00 | 0.00 | 0.00 | 74 | 1004.5 |
| 20260510004609 | 17 | 172 | 0.0 | 0.0 | 0.00 | 0.00 | 0.00 | 74 | 1004.6 |
| 20260510004107 | 17 | 172 | 0.0 | 0.0 | 0.00 | 0.00 | 0.00 | 73 | 1004.5 |
| 20260510003604 | 18 | 172 | 0.0 | 0.0 | 0.00 | 0.00 | 0.00 | 71 | 1004.6 |
| 20260510003100 | 18 | 172 | 0.0 | 0.0 | 0.00 | 0.00 | 0.00 | 70 | 1004.6 |
| 20260510002554 | 18 | 172 | 0.0 | 0.0 | 0.00 | 0.00 | 0.00 | 70 | 1004.4 |
| 20260510002052 | 19 | 172 | 0.0 | 0.0 | 0.00 | 0.00 | 0.00 | 69 | 1004.6 |
| 20260510001549 | 19 | 172 | 0.0 | 0.0 | 0.00 | 0.00 | 0.00 | 66 | 1004.4 |
| 20260510001048 | 20 | 172 | 0.0 | 0.0 | 0.00 | 0.00 | 0.00 | 65 | 1004.2 |
| 20260510000542 | 20 | 162 | 0.0 | 0.0 | 0.00 | 0.00 | 0.00 | 64 | 1004.5 |
| 20260510000039 | 20 | 162 | 0.0 | 0.0 | 0.00 | 0.00 | 0.00 | 62 | 1004.2 |
| 20260509235536 | 20 | 162 | 0.0 | 0.0 | 0.00 | 0.00 | 0.00 | 62 | 1004.0 |
| 20260509235033 | 21 | 162 | 0.0 | 3.2 | 0.00 | 0.00 | 0.00 | 61 | 1004.2 |
| 20260509234529 | 21 | 187 | 0.0 | 0.0 | 0.00 | 0.00 | 0.00 | 60 | 1004.2 |
| 20260509234027 | 21 | 187 | 0.0 | 0.0 | 0.00 | 0.00 | 0.00 | 62 | 1004.4 |
| 20260509233524 | 22 | 173 | 0.0 | 0.0 | 0.00 | 0.00 | 0.00 | 58 | 1004.1 |
| 20260509233021 | 22 | 195 | 0.0 | 0.0 | 0.00 | 0.00 | 0.00 | 55 | 1003.9 |
| 20260509232518 | 22 | 154 | 0.0 | 3.2 | 0.00 | 0.00 | 0.00 | 53 | 1003.8 |
| 20260509232015 | 22 | 172 | 0.0 | 0.0 | 0.00 | 0.00 | 0.00 | 53 | 1004.1 |
| 20260509231511 | 23 | 172 | 0.0 | 0.0 | 0.00 | 0.00 | 0.00 | 52 | 1004.1 |
| 20260509231009 | 23 | 157 | 0.0 | 4.8 | 0.00 | 0.00 | 0.00 | 51 | 1004.1 |
| 20260509230505 | 23 | 172 | 0.0 | 0.0 | 0.00 | 0.00 | 0.00 | 51 | 1004.1 |
| 20260509230002 | 23 | 180 | 0.0 | 3.2 | 0.00 | 0.00 | 0.00 | 50 | 1004.0 |
| 20260509225458 | 23 | 106 | 0.0 | 1.6 | 0.00 | 0.00 | 0.00 | 51 | 1004.1 |
| 20260509224954 | 23 | 0 | 0.0 | 1.6 | 0.00 | 0.00 | 0.00 | 51 | 1003.9 |
| 20260509224449 | 23 | 162 | 0.0 | 3.2 | 0.00 | 0.00 | 0.00 | 48 | 1004.0 |
| 20260509223946 | 23 | 117 | 0.0 | 3.2 | 0.00 | 0.00 | 0.00 | 47 | 1004.0 |
| 20260509223443 | 23 | 233 | 0.0 | 3.2 | 0.00 | 0.00 | 0.00 | 46 | 1004.3 |
| 20260509222940 | 23 | 254 | 0.0 | 0.0 | 0.00 | 0.00 | 0.00 | 48 | 1004.2 |
| 20260509222436 | 23 | 254 | 0.0 | 1.6 | 0.00 | 0.00 | 0.00 | 47 | 1004.2 |
| 20260509221931 | 23 | 270 | 0.0 | 0.0 | 0.00 | 0.00 | 0.00 | 48 | 1004.1 |
| 20260509221429 | 23 | 270 | 0.0 | 0.0 | 0.00 | 0.00 | 0.00 | 49 | 1004.3 |
| 20260509220924 | 23 | 340 | 0.0 | 0.0 | 0.00 | 0.00 | 0.00 | 48 | 1004.1 |
| 20260509220420 | 23 | 165 | 0.0 | 0.0 | 0.00 | 0.00 | 0.00 | 48 | 1004.3 |
| 20260509215917 | 23 | 240 | 0.0 | 3.2 | 0.00 | 0.00 | 0.00 | 48 | 1003.9 |
| 20260509215412 | 23 | 90 | 0.0 | 0.0 | 0.00 | 0.00 | 0.00 | 49 | 1004.3 |
| 20260509214910 | 23 | 90 | 0.0 | 0.0 | 0.00 | 0.00 | 0.00 | 49 | 1004.1 |
| 20260509214407 | 23 | 254 | 0.0 | 4.8 | 0.00 | 0.00 | 0.00 | 48 | 1003.9 |
| 20260509213904 | 23 | 252 | 0.0 | 3.2 | 0.00 | 0.00 | 0.00 | 48 | 1004.1 |
| 20260509213359 | 23 | 246 | 0.0 | 6.4 | 0.00 | 0.00 | 0.00 | 48 | 1003.9 |
| 20260509212857 | 23 | 280 | 3.2 | 4.8 | 0.00 | 0.00 | 0.00 | 45 | 1003.9 |
| 20260509212354 | 25 | 297 | 0.0 | 6.4 | 0.00 | 0.00 | 0.00 | 46 | 1003.9 |
| 20260509211850 | 25 | 266 | 4.8 | 4.8 | 0.00 | 0.00 | 0.00 | 46 | 1004.0 |
| 20260509211346 | 24 | 234 | 0.0 | 6.4 | 0.00 | 0.00 | 0.00 | 47 | 1003.8 |
| 20260509210843 | 24 | 254 | 0.0 | 3.2 | 0.00 | 0.00 | 0.00 | 50 | 1003.8 |
| 20260509210341 | 24 | 261 | 0.0 | 8.0 | 0.00 | 0.00 | 0.00 | 46 | 1003.9 |
| 20260509205840 | 25 | 180 | 0.0 | 16.1 | 0.00 | 0.00 | 0.00 | 48 | 1004.0 |
| 20260509205335 | 23 | 246 | 3.2 | 3.2 | 0.00 | 0.00 | 0.00 | 49 | 1003.9 |
| 20260509204832 | 25 | 188 | 0.0 | 4.8 | 0.00 | 0.00 | 0.00 | 47 | 1003.8 |
| 20260509204328 | 25 | 255 | 0.0 | 12.9 | 0.00 | 0.00 | 0.00 | 46 | 1003.8 |
| 20260509203824 | 25 | 281 | 0.0 | 9.7 | 0.00 | 0.00 | 0.00 | 49 | 1003.8 |
| 20260509203321 | 25 | 270 | 4.8 | 11.3 | 0.00 | 0.00 | 0.00 | 47 | 1004.0 |
| 20260509202817 | 25 | 294 | 0.0 | 11.3 | 0.00 | 0.00 | 0.00 | 45 | 1004.0 |
| 20260509202314 | 25 | 340 | 0.0 | 8.0 | 0.00 | 0.00 | 0.00 | 48 | 1003.9 |
| 20260509201813 | 25 | 174 | 6.4 | 8.0 | 0.00 | 0.00 | 0.00 | 45 | 1003.9 |
| 20260509201310 | 24 | 270 | 1.6 | 4.8 | 0.00 | 0.00 | 0.00 | 48 | 1003.9 |
| 20260509200807 | 25 | 253 | 3.2 | 4.8 | 0.00 | 0.00 | 0.00 | 49 | 1004.0 |
| 20260509200302 | 23 | 276 | 0.0 | 9.7 | 0.00 | 0.00 | 0.00 | 50 | 1003.9 |
| 20260509195758 | 25 | 289 | 1.6 | 11.3 | 0.00 | 0.00 | 0.00 | 52 | 1004.1 |
| 20260509195254 | 23 | 65 | 3.2 | 8.0 | 0.00 | 0.00 | 0.00 | 51 | 1004.1 |
| 20260509194748 | 23 | 355 | 0.0 | 9.7 | 0.00 | 0.00 | 0.00 | 53 | 1004.4 |
| 20260509194244 | 22 | 294 | 0.0 | 3.2 | 0.00 | 0.00 | 0.00 | 57 | 1004.2 |
| 20260509193741 | 22 | 0 | 0.0 | 4.8 | 0.00 | 0.00 | 0.00 | 55 | 1004.6 |
| 20260509193241 | 22 | 292 | 3.2 | 4.8 | 0.00 | 0.00 | 0.00 | 55 | 1004.6 |
| 20260509192738 | 22 | 270 | 1.6 | 8.0 | 0.00 | 0.00 | 0.00 | 54 | 1004.6 |
| 20260509192232 | 22 | 300 | 3.2 | 6.4 | 0.00 | 0.00 | 0.00 | 57 | 1004.7 |
| 20260509191728 | 22 | 294 | 4.8 | 8.0 | 0.00 | 0.00 | 0.00 | 56 | 1004.8 |
| 20260509191225 | 22 | 220 | 0.0 | 9.7 | 0.00 | 0.00 | 0.00 | 56 | 1004.9 |
| 20260509190721 | 22 | 151 | 3.2 | 4.8 | 0.00 | 0.00 | 0.00 | 56 | 1005.0 |
| 20260509190218 | 21 | 90 | 1.6 | 9.7 | 0.00 | 0.00 | 0.00 | 59 | 1005.2 |
| 20260509185716 | 21 | 294 | 8.0 | 12.9 | 0.00 | 0.00 | 0.00 | 58 | 1005.1 |
| 20260509185212 | 21 | 186 | 1.6 | 4.8 | 0.00 | 0.00 | 0.00 | 59 | 1005.0 |
| 20260509184709 | 21 | 180 | 8.0 | 9.7 | 0.00 | 0.00 | 0.00 | 59 | 1005.0 |
| 20260509184207 | 21 | 184 | 0.0 | 6.4 | 0.00 | 0.00 | 0.00 | 62 | 1005.1 |
| 20260509183703 | 21 | 340 | 1.6 | 8.0 | 0.00 | 0.00 | 0.00 | 60 | 1005.2 |
| 20260509183158 | 21 | 157 | 0.0 | 3.2 | 0.00 | 0.00 | 0.00 | 59 | 1005.0 |
| 20260509182654 | 21 | 268 | 8.0 | 8.0 | 0.00 | 0.00 | 0.00 | 59 | 1005.2 |
| 20260509182152 | 21 | 311 | 0.0 | 6.4 | 0.00 | 0.00 | 0.00 | 57 | 1005.4 |
| 20260509181649 | 21 | 265 | 0.0 | 8.0 | 0.00 | 0.00 | 0.00 | 59 | 1005.4 |
| 20260509181147 | 21 | 90 | 0.0 | 6.4 | 0.00 | 0.00 | 0.00 | 59 | 1005.7 |
| 20260509180643 | 21 | 270 | 0.0 | 3.2 | 0.00 | 0.00 | 0.00 | 60 | 1005.7 |
| 20260509180139 | 21 | 7 | 0.0 | 4.8 | 0.00 | 0.00 | 0.00 | 61 | 1005.7 |
| 20260509175635 | 20 | 225 | 0.0 | 4.8 | 0.00 | 0.00 | 0.00 | 60 | 1006.1 |
| 20260509175132 | 21 | 195 | 0.0 | 4.8 | 0.00 | 0.00 | 0.00 | 59 | 1006.1 |
| 20260509174628 | 20 | 253 | 4.8 | 6.4 | 0.00 | 0.00 | 0.00 | 58 | 1005.9 |
| 20260509174123 | 20 | 18 | 1.6 | 8.0 | 0.00 | 0.00 | 0.00 | 60 | 1006.1 |
| 20260509173619 | 20 | 337 | 1.6 | 9.7 | 0.00 | 0.00 | 0.00 | 61 | 1006.1 |
| 20260509173115 | 20 | 258 | 4.8 | 8.0 | 0.00 | 0.00 | 0.00 | 60 | 1006.2 |
| 20260509172612 | 20 | 283 | 3.2 | 11.3 | 0.00 | 0.00 | 0.00 | 61 | 1006.1 |
| 20260509172108 | 20 | 106 | 6.4 | 6.4 | 0.00 | 0.00 | 0.00 | 59 | 1006.3 |
| 20260509171604 | 20 | 279 | 3.2 | 9.7 | 0.00 | 0.00 | 0.00 | 59 | 1006.2 |
| 20260509171100 | 21 | 0 | 4.8 | 4.8 | 0.00 | 0.00 | 0.00 | 60 | 1006.2 |
| 20260509170557 | 20 | 297 | 1.6 | 8.0 | 0.00 | 0.00 | 0.00 | 59 | 1006.1 |
| 20260509170053 | 21 | 0 | 1.6 | 8.0 | 0.00 | 0.00 | 0.00 | 58 | 1006.1 |
| 20260509165551 | 21 | 348 | 3.2 | 4.8 | 0.00 | 0.00 | 0.00 | 58 | 1006.0 |
| 20260509165047 | 21 | 229 | 0.0 | 6.4 | 0.00 | 0.00 | 0.00 | 59 | 1006.0 |
| 20260509164543 | 20 | 348 | 3.2 | 4.8 | 0.00 | 0.00 | 0.00 | 60 | 1006.1 |
| 20260509164044 | 20 | 270 | 0.0 | 8.0 | 0.00 | 0.00 | 0.00 | 61 | 1006.3 |
| 20260509163543 | 20 | 222 | 4.8 | 6.4 | 0.00 | 0.00 | 0.00 | 62 | 1006.3 |
| 20260509163037 | 20 | 141 | 6.4 | 17.7 | 0.00 | 0.00 | 0.00 | 61 | 1006.4 |
| 20260509162535 | 20 | 63 | 3.2 | 4.8 | 0.00 | 0.00 | 0.00 | 62 | 1006.3 |
| 20260509162031 | 19 | 327 | 0.0 | 11.3 | 0.00 | 0.00 | 0.00 | 62 | 1006.5 |
| 20260509161527 | 19 | 341 | 0.0 | 11.3 | 0.00 | 0.00 | 0.00 | 61 | 1006.7 |
| 20260509161022 | 20 | 266 | 3.2 | 4.8 | 0.00 | 0.00 | 0.00 | 61 | 1006.5 |
| 20260509160518 | 20 | 312 | 3.2 | 4.8 | 0.00 | 0.00 | 0.00 | 60 | 1006.6 |
| 20260509160014 | 20 | 49 | 3.2 | 6.4 | 0.00 | 0.00 | 0.00 | 60 | 1006.5 |
| 20260509155510 | 20 | 254 | 1.6 | 6.4 | 0.00 | 0.00 | 0.00 | 62 | 1006.4 |
| 20260509155006 | 20 | 352 | 0.0 | 4.8 | 0.00 | 0.00 | 0.00 | 61 | 1006.4 |
| 20260509154503 | 20 | 344 | 4.8 | 11.3 | 0.00 | 0.00 | 0.00 | 60 | 1006.4 |
| 20260509154000 | 20 | 178 | 6.4 | 16.1 | 0.00 | 0.00 | 0.00 | 59 | 1006.7 |
| 20260509153457 | 20 | 135 | 3.2 | 12.9 | 0.00 | 0.00 | 0.00 | 60 | 1006.7 |
| 20260509152954 | 20 | 164 | 4.8 | 6.4 | 0.00 | 0.00 | 0.00 | 58 | 1006.8 |
| 20260509152449 | 20 | 216 | 0.0 | 12.9 | 0.00 | 0.00 | 0.00 | 60 | 1006.6 |
| 20260509151947 | 19 | 196 | 4.8 | 6.4 | 0.00 | 0.00 | 0.00 | 60 | 1007.0 |
| 20260509151443 | 18 | 36 | 0.0 | 4.8 | 0.00 | 0.00 | 0.00 | 60 | 1006.7 |
| 20260509150941 | 18 | 270 | 4.8 | 4.8 | 0.00 | 0.00 | 0.00 | 61 | 1006.9 |
| 20260509150438 | 18 | 180 | 3.2 | 6.4 | 0.00 | 0.00 | 0.00 | 63 | 1006.9 |
| 20260509145936 | 18 | 277 | 1.6 | 4.8 | 0.00 | 0.00 | 0.00 | 60 | 1006.8 |
| 20260509145431 | 19 | 176 | 3.2 | 6.4 | 0.00 | 0.00 | 0.00 | 60 | 1006.9 |
| 20260509144927 | 18 | 173 | 0.0 | 4.8 | 0.00 | 0.00 | 0.00 | 62 | 1006.8 |
| 20260509144424 | 18 | 140 | 9.7 | 11.3 | 0.00 | 0.00 | 0.00 | 61 | 1007.0 |
| 20260509143921 | 17 | 233 | 3.2 | 4.8 | 0.00 | 0.00 | 0.00 | 62 | 1007.1 |
| 20260509143418 | 17 | 237 | 0.0 | 9.7 | 0.00 | 0.00 | 0.00 | 62 | 1007.3 |
| 20260509142914 | 17 | 262 | 4.8 | 8.0 | 0.00 | 0.00 | 0.00 | 62 | 1007.4 |
| 20260509142411 | 17 | 324 | 4.8 | 8.0 | 0.00 | 0.00 | 0.00 | 64 | 1007.3 |
| 20260509141906 | 17 | 151 | 0.0 | 8.0 | 0.00 | 0.00 | 0.00 | 63 | 1007.1 |
| 20260509141404 | 17 | 322 | 4.8 | 8.0 | 0.00 | 0.00 | 0.00 | 62 | 1007.4 |
| 20260509140900 | 17 | 180 | 0.0 | 6.4 | 0.00 | 0.00 | 0.00 | 63 | 1007.5 |
| 20260509140357 | 17 | 107 | 0.0 | 16.1 | 0.00 | 0.00 | 0.00 | 62 | 1007.5 |
| 20260509135855 | 16 | 342 | 4.8 | 12.9 | 0.00 | 0.00 | 0.00 | 63 | 1007.4 |
| 20260509135352 | 16 | 259 | 0.0 | 6.4 | 0.00 | 0.00 | 0.00 | 64 | 1007.4 |
| 20260509134850 | 16 | 355 | 0.0 | 6.4 | 0.00 | 0.00 | 0.00 | 65 | 1007.5 |
| 20260509134347 | 16 | 312 | 3.2 | 4.8 | 0.00 | 0.00 | 0.00 | 65 | 1007.2 |
| 20260509133843 | 16 | 159 | 3.2 | 4.8 | 0.00 | 0.00 | 0.00 | 64 | 1007.5 |
| 20260509133340 | 15 | 309 | 4.8 | 4.8 | 0.00 | 0.00 | 0.00 | 65 | 1007.4 |
| 20260509132839 | 15 | 283 | 4.8 | 6.4 | 0.00 | 0.00 | 0.00 | 66 | 1007.5 |
| 20260509132337 | 15 | 270 | 0.0 | 3.2 | 0.00 | 0.00 | 0.00 | 66 | 1007.3 |
| 20260509131834 | 15 | 180 | 1.6 | 4.8 | 0.00 | 0.00 | 0.00 | 68 | 1007.3 |
| 20260509131330 | 15 | 102 | 0.0 | 4.8 | 0.00 | 0.00 | 0.00 | 67 | 1007.2 |
| 20260509130827 | 14 | 96 | 1.6 | 3.2 | 0.00 | 0.00 | 0.00 | 67 | 1007.4 |
| 20260509130323 | 14 | 148 | 0.0 | 8.0 | 0.00 | 0.00 | 0.00 | 67 | 1007.6 |
| 20260509125819 | 15 | 90 | 0.0 | 4.8 | 0.00 | 0.00 | 0.00 | 67 | 1007.4 |
| 20260509125316 | 14 | 135 | 0.0 | 3.2 | 0.00 | 0.00 | 0.00 | 67 | 1007.6 |
| 20260509124812 | 14 | 135 | 3.2 | 4.8 | 0.00 | 0.00 | 0.00 | 68 | 1007.3 |
| 20260509124309 | 14 | 112 | 0.0 | 3.2 | 0.00 | 0.00 | 0.00 | 67 | 1007.7 |
| 20260509123808 | 14 | 99 | 0.0 | 6.4 | 0.00 | 0.00 | 0.00 | 66 | 1007.5 |
| 20260509123304 | 14 | 0 | 0.0 | 0.0 | 0.00 | 0.00 | 0.00 | 68 | 1007.4 |
| 20260509122800 | 14 | 103 | 1.6 | 6.4 | 0.00 | 0.00 | 0.00 | 66 | 1007.5 |
| 20260509122257 | 14 | 190 | 0.0 | 4.8 | 0.00 | 0.00 | 0.00 | 68 | 1007.7 |
| 20260509121754 | 13 | 99 | 0.0 | 0.0 | 0.00 | 0.00 | 0.00 | 67 | 1007.7 |
| 20260509121251 | 13 | 285 | 3.2 | 3.2 | 0.00 | 0.00 | 0.00 | 67 | 1007.5 |
| 20260509120749 | 13 | 147 | 0.0 | 6.4 | 0.00 | 0.00 | 0.00 | 66 | 1007.6 |
| 20260509120247 | 13 | 180 | 3.2 | 3.2 | 0.00 | 0.00 | 0.00 | 66 | 1007.6 |
| 20260509115745 | 13 | 0 | 0.0 | 3.2 | 0.00 | 0.00 | 0.00 | 67 | 1007.4 |
| 20260509115241 | 13 | 157 | 0.0 | 3.2 | 0.00 | 0.00 | 0.00 | 69 | 1007.5 |
| 20260509114739 | 13 | 82 | 0.0 | 3.2 | 0.00 | 0.00 | 0.00 | 67 | 1007.3 |
| 20260509114238 | 13 | 57 | 3.2 | 3.2 | 0.00 | 0.00 | 0.00 | 68 | 1007.4 |
| 20260509113736 | 13 | 5 | 0.0 | 3.2 | 0.00 | 0.00 | 0.00 | 67 | 1007.8 |
| 20260509113233 | 13 | 8 | 0.0 | 0.0 | 0.00 | 0.00 | 0.00 | 68 | 1007.5 |
| 20260509112730 | 13 | 270 | 0.0 | 0.0 | 0.00 | 0.00 | 0.00 | 67 | 1007.5 |
| 20260509112227 | 13 | 145 | 0.0 | 6.4 | 0.00 | 0.00 | 0.00 | 67 | 1007.4 |
| 20260509111724 | 13 | 90 | 0.0 | 0.0 | 0.00 | 0.00 | 0.00 | 68 | 1007.7 |
| 20260509111221 | 13 | 180 | 0.0 | 4.8 | 0.00 | 0.00 | 0.00 | 68 | 1007.3 |
| 20260509110718 | 13 | 169 | 0.0 | 3.2 | 0.00 | 0.00 | 0.00 | 67 | 1007.2 |
| 20260509110215 | 13 | 171 | 3.2 | 3.2 | 0.00 | 0.00 | 0.00 | 67 | 1007.2 |
| 20260509105713 | 12 | 156 | 3.2 | 4.8 | 0.00 | 0.00 | 0.00 | 66 | 1007.2 |
| 20260509105210 | 12 | 173 | 0.0 | 3.2 | 0.00 | 0.00 | 0.00 | 66 | 1007.1 |
| 20260509104707 | 12 | 15 | 0.0 | 1.6 | 0.00 | 0.00 | 0.00 | 67 | 1007.2 |
| 20260509104204 | 12 | 139 | 0.0 | 3.2 | 0.00 | 0.00 | 0.00 | 67 | 1007.3 |
| 20260509103702 | 12 | 23 | 0.0 | 1.6 | 0.00 | 0.00 | 0.00 | 67 | 1007.3 |
| 20260509103159 | 12 | 152 | 3.2 | 4.8 | 0.00 | 0.00 | 0.00 | 66 | 1007.0 |
| 20260509102657 | 12 | 157 | 1.6 | 3.2 | 0.00 | 0.00 | 0.00 | 66 | 1007.1 |
| 20260509102154 | 12 | 106 | 0.0 | 3.2 | 0.00 | 0.00 | 0.00 | 66 | 1007.0 |
| 20260509101650 | 12 | 337 | 0.0 | 1.6 | 0.00 | 0.00 | 0.00 | 66 | 1007.0 |
| 20260509101147 | 12 | 151 | 0.0 | 1.6 | 0.00 | 0.00 | 0.00 | 66 | 1007.2 |
| 20260509100644 | 13 | 320 | 0.0 | 3.2 | 0.00 | 0.00 | 0.00 | 66 | 1006.8 |
| 20260509100141 | 13 | 145 | 0.0 | 0.0 | 0.00 | 0.00 | 0.00 | 65 | 1007.2 |
| 20260509095638 | 13 | 145 | 0.0 | 1.6 | 0.00 | 0.00 | 0.00 | 64 | 1006.9 |
| 20260509095135 | 13 | 286 | 0.0 | 3.2 | 0.00 | 0.00 | 0.00 | 64 | 1007.0 |
| 20260509094631 | 13 | 212 | 0.0 | 3.2 | 0.00 | 0.00 | 0.00 | 64 | 1006.9 |
| 20260509094129 | 13 | 279 | 0.0 | 3.2 | 0.00 | 0.00 | 0.00 | 64 | 1006.7 |
| 20260509093627 | 13 | 74 | 0.0 | 4.8 | 0.00 | 0.00 | 0.00 | 63 | 1006.9 |
| 20260509093124 | 13 | 173 | 0.0 | 0.0 | 0.00 | 0.00 | 0.00 | 64 | 1006.8 |
| 20260509092622 | 13 | 286 | 1.6 | 3.2 | 0.00 | 0.00 | 0.00 | 63 | 1007.2 |
| 20260509092120 | 13 | 246 | 0.0 | 3.2 | 0.00 | 0.00 | 0.00 | 63 | 1007.2 |
| 20260509091618 | 13 | 277 | 0.0 | 6.4 | 0.00 | 0.00 | 0.00 | 63 | 1007.4 |
| 20260509091114 | 13 | 292 | 3.2 | 6.4 | 0.00 | 0.00 | 0.00 | 63 | 1007.3 |
| 20260509090612 | 13 | 7 | 1.6 | 4.8 | 0.00 | 0.00 | 0.00 | 63 | 1007.5 |
| 20260509090109 | 13 | 274 | 4.8 | 8.0 | 0.00 | 0.00 | 0.00 | 63 | 1007.2 |
| 20260509085606 | 13 | 340 | 0.0 | 4.8 | 0.00 | 0.00 | 0.00 | 63 | 1007.5 |
| 20260509085102 | 13 | 15 | 0.0 | 9.7 | 0.00 | 0.00 | 0.00 | 63 | 1007.4 |
| 20260509084559 | 13 | 5 | 0.0 | 3.2 | 0.00 | 0.00 | 0.00 | 63 | 1007.3 |
| 20260509084056 | 13 | 32 | 0.0 | 3.2 | 0.00 | 0.00 | 0.00 | 64 | 1007.3 |
| 20260509083554 | 13 | 11 | 0.0 | 8.0 | 0.00 | 0.00 | 0.00 | 62 | 1007.3 |
| 20260509083050 | 13 | 84 | 0.0 | 6.4 | 0.00 | 0.00 | 0.00 | 63 | 1007.4 |
| 20260509082548 | 13 | 7 | 0.0 | 4.8 | 0.00 | 0.00 | 0.00 | 63 | 1007.3 |
| 20260509082044 | 13 | 8 | 4.8 | 14.5 | 0.00 | 0.00 | 0.00 | 63 | 1007.7 |
| 20260509081542 | 13 | 32 | 4.8 | 4.8 | 0.00 | 0.00 | 0.00 | 64 | 1007.7 |
| 20260509081038 | 13 | 164 | 4.8 | 11.3 | 0.00 | 0.00 | 0.00 | 63 | 1007.4 |
| 20260509080536 | 13 | 35 | 0.0 | 4.8 | 0.00 | 0.00 | 0.00 | 64 | 1007.8 |
| 20260509080034 | 13 | 63 | 0.0 | 6.4 | 0.00 | 0.00 | 0.00 | 63 | 1007.6 |
| 20260509075531 | 13 | 5 | 0.0 | 9.7 | 0.00 | 0.00 | 0.00 | 64 | 1007.6 |
| 20260509075029 | 13 | 165 | 1.6 | 4.8 | 0.00 | 0.00 | 0.00 | 64 | 1007.9 |
| 20260509074526 | 13 | 60 | 1.6 | 3.2 | 0.00 | 0.00 | 0.00 | 63 | 1008.0 |
| 20260509074023 | 13 | 112 | 3.2 | 4.8 | 0.00 | 0.00 | 0.00 | 63 | 1008.0 |
| 20260509073519 | 13 | 257 | 3.2 | 8.0 | 0.00 | 0.00 | 0.00 | 63 | 1007.7 |
| 20260509073016 | 13 | 306 | 1.6 | 4.8 | 0.00 | 0.00 | 0.00 | 63 | 1008.0 |
| 20260509072512 | 13 | 45 | 0.0 | 4.8 | 0.00 | 0.00 | 0.00 | 63 | 1007.8 |
| 20260509072009 | 13 | 8 | 0.0 | 4.8 | 0.00 | 0.00 | 0.00 | 63 | 1007.7 |
| 20260509071506 | 13 | 342 | 1.6 | 4.8 | 0.00 | 0.00 | 0.00 | 62 | 1007.8 |
| 20260509071003 | 13 | 172 | 0.0 | 4.8 | 0.00 | 0.00 | 0.00 | 62 | 1007.8 |
| 20260509070500 | 13 | 106 | 1.6 | 3.2 | 0.00 | 0.00 | 0.00 | 62 | 1007.7 |
| 20260509065956 | 13 | 161 | 0.0 | 3.2 | 0.00 | 0.00 | 0.00 | 61 | 1007.9 |
| 20260509065452 | 13 | 199 | 0.0 | 6.4 | 0.00 | 0.00 | 0.00 | 61 | 1007.9 |
| 20260509064948 | 13 | 66 | 0.0 | 3.2 | 0.00 | 0.00 | 0.00 | 62 | 1007.9 |
| 20260509064446 | 13 | 144 | 0.0 | 4.8 | 0.00 | 0.00 | 0.00 | 61 | 1007.7 |
| 20260509063944 | 13 | 294 | 0.0 | 4.8 | 0.00 | 0.00 | 0.00 | 62 | 1008.0 |
| 20260509063439 | 12 | 101 | 3.2 | 4.8 | 0.00 | 0.00 | 0.00 | 63 | 1007.8 |
| 20260509062936 | 12 | 99 | 0.0 | 8.0 | 0.00 | 0.00 | 0.00 | 63 | 1008.0 |
| 20260509062434 | 12 | 172 | 0.0 | 4.8 | 0.00 | 0.00 | 0.00 | 63 | 1008.1 |
| 20260509061931 | 12 | 32 | 0.0 | 3.2 | 0.00 | 0.00 | 0.00 | 64 | 1008.1 |